{"data":{"norad_id":67232,"intl_designator":"2025-309A","name":"SPACEMOBILE-006","alt_names":[],"object_type":"PAYLOAD","status":"ACTIVE","operator":null,"country":"US","launch_date":"2025-12-24","launch_site_code":"SRILR","launch_vehicle":null,"mission":null,"orbit_class":"UNKNOWN","rcs_meters":null,"size_class":null,"mass_kg":null,"dimensions":null,"purposes":[],"wikipedia_slug":null,"has_3d_model":false,"image_url":null,"decayed_at":null,"tle_current":{"epoch":"2026-09-20T06:23:03.590592Z","epoch_age_seconds":126261,"freshness":"FRESH","line1":"1 67232U 25309A   26263.26601378  .00002219  00000+0  12008-3 0  9998","line2":"2 67232  52.9962 256.0100 0012243  68.0939 292.1355 15.18918158 41049","mean_motion":15.18918158,"eccentricity":0.0012243,"inclination_deg":52.9962,"raan_deg":256.01,"arg_perigee_deg":68.0939,"mean_anomaly_deg":292.1355,"bstar":0.00012008,"rev_number":4104,"period_min":94.804317955886,"perigee_km":500.67689013526,"apogee_km":517.54100055703,"semimajor_km":6887.2459453461,"source":"CELESTRAK","updated_at":"2026-09-21T09:00:16.507368Z"}}}